Wind_Speed
40 40 40 39 39 38 38 38 38 39 39 38 38 39 38 38 39 39 40 40 41 41 40 39 39 39 38 36 37 36 35 34 33 33 33 32 32 31 30 30 29 29 30
42 41 41 41 40 39 39 39 39 39 40 40 40 40 40 39 39 39 40 41 42 43 43 42 41 40 40 38 37 38 37 36 36 36 35 34 33 32 31 32 31 31 31
42 42 42 42 41 41 41 40 40 40 41 41 41 41 40 40 40 40 41 42 42 43 44 43 43 43 42 41 40 40 39 38 38 38 37 36 36 33 33 33 33 33 33
43 43 43 43 42 42 42 42 41 42 42 41 41 41 40 40 40 41 42 42 43 43 43 44 44 44 43 42 42 42 42 41 41 40 40 39 38 36 35 35 35 34 34
44 44 44 43 43 43 43 43 43 43 43 42 42 42 40 41 41 42 42 42 43 44 44 45 45 45 44 43 43 43 43 42 42 42 41 40 40 38 36 36 36 36 36
44 44 44 44 43 43 44 44 44 43 43 43 43 42 42 42 42 42 43 43 43 44 44 45 46 45 45 44 43 43 43 42 41 41 42 41 41 40 39 38 38 38 38
44 45 45 45 44 43 43 44 44 43 43 43 43 43 44 44 43 43 43 43 44 44 45 45 46 46 46 45 44 43 43 43 42 42 42 43 43 42 40 40 40 39 39
43 43 43 44 43 43 44 44 44 44 43 43 44 44 44 45 44 44 44 44 44 44 45 45 45 46 46 46 45 44 44 44 44 44 43 43 44 43 41 40 40 40 41
42 42 42 42 43 44 44 45 45 44 44 43 43 43 44 44 45 45 45 45 44 44 44 45 45 46 47 47 46 45 45 45 45 45 45 45 45 44 43 42 41 41 42
42 42 42 43 43 44 44 44 44 44 44 44 43 43 43 44 44 45 45 45 46 45 44 45 47 48 48 48 47 46 46 46 45 45 45 45 46 45 44 44 43 43 42
42 42 41 42 43 43 43 44 44 44 43 43 43 43 43 43 44 45 45 45 46 45 45 45 46 47 48 48 48 47 46 47 47 46 46 46 45 46 47 45 44 44 44
43 42 42 43 43 43 43 43 42 42 43 43 43 43 43 44 44 44 45 45 46 46 46 46 45 46 47 48 48 48 47 47 47 47 48 49 48 48 48 48 47 46 46
43 43 43 43 43 43 42 42 42 42 43 43 43 43 44 43 43 44 44 45 46 46 47 47 47 46 46 48 49 49 48 48 48 48 49 50 50 49 49 50 50 48 47
43 43 43 43 42 42 42 42 42 42 43 43 44 44 44 44 45 45 45 46 46 47 48 49 48 48 47 48 48 50 49 49 49 50 50 50 51 49 49 49 50 49 49
43 43 43 43 43 42 42 42 42 42 43 43 43 44 44 44 45 45 45 46 47 48 49 50 50 49 49 49 50 51 51 51 50 50 50 50 51 50 50 49 50 50 50
42 43 43 42 42 42 42 43 43 43 43 44 43 44 44 44 44 44 45 45 46 48 49 50 51 51 51 53 53 53 52 52 52 51 51 50 50 50 50 50 50 50 50
42 42 42 42 42 42 42 42 43 43 44 44 44 43 43 43 43 44 43 44 45 46 47 49 51 52 52 53 54 53 53 54 52 51 51 50 50 50 49 50 50 51 52
41 42 42 43 43 43 43 43 42 42 43 44 44 44 43 42 42 43 43 43 44 45 46 46 48 49 50 51 52 52 52 52 51 51 51 50 50 50 51 51 52 52 52
39 40 41 41 42 42 42 42 42 42 42 43 43 44 44 43 43 43 43 43 43 44 45 46 46 47 48 49 49 50 50 51 50 50 50 50 51 51 52 52 52 53 54
37 37 37 39 40 41 41 41 40 41 41 41 42 42 43 43 43 42 41 42 42 42 43 43 44 45 46 47 47 48 49 50 49 49 49 50 51 51 52 53 54 54 55
35 36 36 36 37 38 39 39 39 38 39 40 41 41 41 42 42 41 42 42 42 42 42 42 43 44 45 46 46 47 48 48 48 48 49 50 51 51 52 53 54 55 56
34 34 34 34 35 35 36 37 37 38 38 39 40 40 40 40 41 41 41 42 42 43 43 43 44 45 46 46 47 48 49 49 49 49 49 50 50 51 52 54 54 55 55
32 33 33 33 34 35 35 36 37 37 38 39 40 40 40 40 41 41 42 42 43 43 42 43 44 46 46 47 48 49 49 50 50 49 50 50 51 51 52 53 54 54 55
30 31 32 32 33 33 34 35 36 36 37 38 38 39 40 39 40 41 41 42 41 42 42 43 44 45 46 47 48 49 49 50 50 50 50 51 51 51 52 52 52 53 53
29 30 31 32 32 33 34 35 35 35 36 37 37 38 39 39 39 39 39 40 41 41 42 42 42 43 43 44 44 46 47 48 49 50 50 51 50 51 51 51 51 51 51
29 30 30 31 32 33 33 34 34 34 35 35 36 36 36 37 37 38 39 39 39 39 39 40 40 41 41 41 43 44 46 47 48 48 49 49 48 48 49 49 50 50 50
Wind_Direction
249 249 250 250 251 251 252 252 251 251 251 251 250 249 248 248 248 247 245 243 242 241 241 242 243 243 245 246 245 246 247 248 249 249 250 250 250 252 256 257 259 262 261
250 250 251 251 252 252 252 252 252 252 252 251 251 249 249 249 248 247 246 244 243 242 241 243 243 244 245 246 246 246 247 248 249 249 249 249 250 253 256 258 261 262 263
250 251 251 252 252 252 252 252 252 251 251 252 252 252 251 250 249 248 247 245 244 244 243 243 245 246 246 247 247 248 249 248 248 248 248 249 250 254 256 258 260 262 262
250 251 252 252 252 252 252 252 251 251 251 252 253 252 252 252 251 249 248 246 245 244 244 244 245 246 246 247 247 248 250 250 248 248 248 249 251 254 256 258 259 260 262
250 251 251 252 252 252 252 252 252 251 251 251 252 252 251 251 251 249 247 246 246 245 244 245 245 245 246 247 247 248 250 251 250 248 248 249 251 253 256 257 259 260 261
250 250 251 251 251 251 252 252 252 252 251 251 251 251 250 250 250 249 247 246 246 245 245 245 244 244 245 246 247 248 249 250 250 248 249 251 252 254 255 257 259 260 262
249 250 251 252 251 251 251 252 252 252 251 251 251 250 250 250 250 248 247 246 245 245 245 245 244 245 244 245 247 247 248 248 249 249 250 252 253 255 256 257 258 260 262
249 251 250 251 252 252 252 252 252 252 252 252 252 251 250 249 249 248 247 247 246 246 246 246 245 244 244 245 246 246 247 248 249 249 251 253 254 256 257 257 259 261 263
248 248 249 250 250 251 251 251 251 251 251 251 251 251 250 249 249 248 247 247 247 247 248 248 247 245 244 244 245 246 247 248 248 248 250 253 254 255 257 258 260 262 263
249 249 250 249 250 250 250 250 249 250 249 250 251 250 250 249 249 249 249 248 248 248 250 250 248 246 245 245 245 246 247 248 248 249 251 253 254 255 256 257 260 262 264
249 249 250 249 250 250 250 249 249 249 249 249 249 249 250 250 249 249 249 249 248 247 249 250 249 247 245 246 247 247 248 248 249 250 252 253 254 255 256 256 259 261 263
248 248 248 248 249 250 250 250 249 248 248 248 249 249 249 249 249 249 249 249 248 247 248 249 249 247 245 246 247 248 248 248 249 251 251 252 253 255 255 256 258 261 263
247 247 247 248 249 249 249 249 249 249 247 247 248 248 248 249 249 249 249 249 249 247 247 247 247 247 247 246 247 248 248 249 250 251 252 253 253 254 256 257 258 261 263
246 246 246 246 247 248 248 247 248 248 248 248 248 248 249 249 250 249 249 249 249 248 247 247 247 247 248 248 248 248 250 250 250 251 251 252 253 255 256 257 260 262 264
246 246 246 245 246 247 247 246 247 247 247 247 248 249 250 250 250 250 250 249 249 248 248 247 247 248 248 248 249 249 251 250 250 251 251 252 253 255 256 258 260 263 265
246 246 246 246 246 247 247 247 248 248 248 248 249 250 251 250 249 249 250 250 249 249 249 249 248 248 248 249 250 250 252 251 252 252 251 252 254 255 257 259 261 263 265
246 247 247 247 246 246 247 248 248 248 248 249 250 251 251 250 250 250 251 251 250 249 250 250 249 249 249 249 249 250 252 252 253 252 252 253 255 256 257 259 261 263 266
246 247 247 247 247 246 247 248 248 247 247 248 249 250 251 251 251 250 249 250 251 251 252 252 251 250 249 249 249 249 251 252 253 252 253 254 255 256 258 260 263 265 268
246 247 246 246 245 246 246 247 247 246 246 247 248 250 250 251 251 250 250 251 251 251 251 250 250 250 249 249 249 249 250 251 252 253 254 255 257 259 261 263 265 267 270
247 247 247 246 246 246 246 246 245 246 246 246 247 249 250 250 251 251 251 252 252 252 252 251 251 251 250 249 249 249 251 252 254 254 256 258 259 261 263 265 266 268 271
247 247 247 247 247 247 247 246 245 245 245 245 246 248 249 250 251 251 252 253 253 254 254 254 253 252 252 251 251 252 252 254 255 256 257 259 261 262 264 266 268 269 271
246 246 245 246 247 247 247 246 246 245 245 245 246 248 250 251 251 253 254 255 256 257 256 255 254 254 254 253 252 252 253 255 257 258 259 261 263 264 266 268 269 270 272
245 245 245 245 246 247 247 248 248 248 247 246 247 248 249 251 253 254 255 256 258 257 256 256 256 255 255 254 253 252 254 256 258 260 261 263 265 267 268 269 270 271 272
245 245 245 244 243 244 245 248 248 249 248 248 248 249 250 252 254 255 256 257 257 257 257 257 257 256 255 255 254 254 256 258 260 261 263 265 266 268 269 270 271 273 274
245 245 246 245 244 244 246 248 248 248 248 248 248 250 251 253 255 257 258 258 257 257 257 257 257 256 255 255 255 256 257 259 261 262 264 265 266 268 269 271 273 274 275
247 247 247 247 247 247 247 247 247 247 248 248 248 249 251 253 255 256 258 257 257 257 257 256 256 256 256 257 257 257 259 260 262 263 264 265 267 269 270 271 273 274 276
Height
5714 5717 5719 5722 5724 5727 5729 5732 5734 5736 5738 5740 5743 5745 5748 5751 5754 5757 5759 5762 5766 5770 5774 5777 5781 5784 5787 5789 5792 5795 5797 5800 5802 5804 5806 5808 5810 5812 5814 5816 5817 5819 5820
5705 5707 5710 5713 5715 5718 5720 5723 5725 5727 5729 5732 5734 5736 5739 5742 5745 5748 5750 5754 5757 5761 5765 5769 5772 5776 5779 5781 5784 5787 5790 5792 5794 5797 5799 5801 5804 5805 5807 5809 5811 5812 5813
5695 5698 5700 5703 5706 5708 5711 5713 5716 5718 5720 5722 5725 5727 5730 5733 5736 5738 5741 5744 5748 5752 5756 5760 5763 5766 5770 5773 5776 5778 5781 5784 5787 5789 5792 5794 5796 5798 5800 5802 5803 5804 5805
5685 5687 5690 5693 5696 5698 5701 5703 5706 5708 5710 5713 5715 5718 5721 5724 5727 5729 5732 5735 5739 5742 5746 5750 5754 5757 5761 5764 5767 5770 5773 5775 5778 5781 5783 5786 5788 5791 5792 5794 5795 5796 5798
5674 5677 5679 5682 5685 5687 5690 5692 5695 5698 5700 5703 5706 5708 5711 5714 5716 5719 5722 5725 5729 5733 5736 5740 5744 5747 5751 5754 5758 5761 5764 5767 5770 5772 5774 5777 5780 5782 5784 5786 5788 5789 5790
5663 5666 5668 5671 5674 5676 5679 5682 5684 5687 5690 5692 5695 5698 5701 5704 5706 5709 5712 5715 5718 5722 5726 5730 5733 5737 5741 5744 5748 5751 5754 5758 5761 5763 5766 5769 5771 5773 5775 5777 5779 5780 5782
5652 5655 5657 5660 5663 5666 5669 5671 5674 5677 5679 5682 5685 5687 5690 5693 5696 5699 5702 5705 5708 5712 5716 5719 5723 5727 5731 5735 5738 5741 5745 5748 5751 5754 5757 5760 5762 5764 5766 5768 5770 5771 5773
5641 5644 5647 5649 5652 5655 5658 5660 5663 5666 5668 5671 5674 5676 5679 5682 5685 5688 5691 5694 5698 5701 5705 5708 5712 5716 5720 5724 5728 5732 5735 5738 5741 5744 5747 5750 5752 5754 5756 5758 5760 5761 5763
5629 5633 5636 5639 5641 5644 5647 5650 5652 5655 5657 5659 5662 5665 5668 5671 5674 5677 5680 5684 5687 5691 5695 5698 5701 5706 5710 5713 5717 5721 5725 5728 5731 5734 5737 5740 5742 5744 5746 5748 5750 5752 5754
5619 5622 5625 5628 5630 5633 5636 5638 5641 5644 5646 5648 5651 5654 5657 5660 5663 5666 5669 5673 5677 5681 5684 5687 5691 5695 5699 5703 5707 5710 5714 5718 5721 5724 5727 5729 5731 5733 5735 5738 5740 5742 5743
5608 5611 5614 5616 5619 5622 5624 5627 5629 5632 5635 5637 5640 5643 5646 5649 5652 5655 5659 5662 5666 5670 5673 5677 5680 5683 5687 5691 5696 5699 5703 5707 5710 5713 5716 5718 5720 5723 5725 5727 5729 5731 5732
5596 5599 5602 5605 5608 5611 5613 5616 5618 5621 5624 5626 5629 5632 5635 5638 5641 5644 5648 5652 5655 5659 5663 5666 5669 5673 5676 5681 5685 5688 5692 5695 5698 5701 5705 5708 5710 5712 5715 5717 5718 5720 5721
5584 5588 5591 5594 5597 5600 5602 5605 5607 5610 5612 5615 5618 5621 5625 5628 5631 5634 5637 5640 5644 5648 5652 5655 5659 5663 5666 5670 5674 5678 5681 5684 5687 5690 5693 5696 5699 5701 5703 5705 5707 5709 5710
5573 5576 5580 5583 5586 5589 5591 5594 5596 5599 5601 5604 5607 5610 5614 5617 5620 5623 5626 5629 5633 5637 5640 5644 5648 5651 5655 5659 5663 5667 5670 5673 5675 5678 5681 5684 5687 5690 5692 5694 5696 5697 5698
5561 5565 5568 5571 5574 5577 5580 5583 5585 5588 5590 5593 5596 5599 5602 5605 5608 5611 5615 5618 5621 5625 5629 5632 5636 5640 5644 5648 5651 5655 5658 5661 5664 5666 5669 5672 5675 5678 5680 5682 5684 5685 5686
5549 5553 5556 5560 5563 5566 5569 5572 5574 5577 5579 5582 5585 5588 5591 5593 5596 5600 5603 5606 5610 5613 5617 5620 5624 5628 5632 5636 5639 5643 5647 5649 5652 5655 5658 5661 5663 5666 5668 5670 5671 5672 5673
5538 5541 5545 5548 5551 5554 5557 5560 5563 5565 5568 5571 5574 5577 5579 5582 5585 5588 5591 5595 5598 5601 5604 5608 5611 5615 5619 5623 5627 5631 5634 5638 5641 5643 5646 5648 5651 5653 5655 5657 5658 5659 5660
5526 5529 5532 5536 5539 5542 5545 5548 5551 5553 5556 5560 5563 5566 5568 5571 5574 5576 5580 5583 5586 5589 5592 5595 5598 5602 5606 5610 5614 5618 5621 5625 5628 5631 5634 5636 5638 5640 5642 5644 5645 5646 5646
5515 5518 5521 5524 5528 5531 5534 5537 5540 5542 5545 5548 5552 5555 5557 5560 5562 5565 5568 5571 5574 5577 5580 5583 5586 5589 5593 5597 5601 5605 5608 5612 5615 5618 5620 5622 5625 5627 5628 5630 5631 5632 5632
5504 5507 5510 5513 5516 5519 5522 5525 5528 5531 5535 5538 5541 5543 5546 5549 5552 5554 5557 5560 5563 5566 5568 5571 5574 5578 5581 5584 5588 5592 5596 5600 5603 5605 5607 5609 5611 5612 5613 5614 5616 5617 5617
5495 5497 5500 5503 5505 5508 5511 5514 5518 5521 5524 5527 5530 5533 5536 5538 5541 5543 5546 5549 5551 5554 5557 5560 5563 5566 5569 5572 5575 5579 5582 5586 5589 5592 5594 5596 5597 5598 5599 5599 5600 5601 5601
5485 5487 5490 5493 5496 5498 5501 5504 5507 5510 5513 5516 5520 5522 5525 5528 5530 5532 5535 5537 5539 5542 5545 5548 5551 5553 5556 5559 5562 5566 5569 5572 5575 5578 5580 5582 5583 5584 5585 5585 5585 5585 5585
5476 5478 5481 5484 5487 5489 5492 5495 5497 5500 5503 5506 5509 5512 5514 5517 5519 5522 5524 5526 5528 5530 5533 5535 5538 5541 5543 5546 5549 5553 5556 5559 5562 5564 5566 5568 5569 5569 5570 5570 5569 5569 5569
5467 5469 5472 5475 5477 5480 5482 5485 5487 5490 5493 5496 5499 5502 5504 5507 5509 5511 5513 5515 5517 5519 5521 5523 5525 5528 5531 5533 5536 5539 5542 5545 5548 5550 5552 5553 5554 5554 5555 5555 5554 5554 5553
5458 5461 5463 5466 5468 5470 5472 5475 5477 5480 5483 5486 5488 5491 5494 5496 5498 5500 5502 5504 5506 5507 5509 5511 5513 5516 5519 5521 5523 5526 5529 5532 5534 5535 5537 5538 5539 5540 5540 5540 5540 5539 5538
5451 5453 5455 5457 5459 5460 5463 5465 5467 5470 5473 5475 5478 5481 5484 5486 5488 5490 5492 5493 5495 5496 5498 5500 5502 5504 5507 5509 5511 5513 5516 5518 5520 5521 5523 5524 5525 5526 5526 5526 5526 5525 5524